EW3359 Weather Reports


Display with metric or nautical units.
time (UTC)temp
F
wind
direction
speed
MPH
gust
MPH
rain 1hr
in
rain 24hr
in
rain mn
in
humidity
%
barometer
mb
20260503223054 57 249 0.0 1.0 0.00 0.00 0.00 63 1013.0
20260503221554 58 228 0.0 1.0 0.00 0.00 0.00 60 1012.9
20260503220049 57 183 0.0 0.0 0.00 0.00 0.00 63 1012.6
20260503214559 57 182 0.0 0.0 0.00 0.00 0.00 63 1012.5
20260503213048 57 182 0.0 0.0 0.00 0.00 0.00 64 1012.6
20260503211552 59 182 0.0 0.0 0.00 0.00 0.00 59 1012.5
20260503210046 59 182 0.0 0.0 0.00 0.00 0.00 59 1012.5
20260503204554 58 184 0.0 0.0 0.00 0.00 0.00 59 1012.5
20260503203049 58 184 0.0 0.0 0.00 0.00 0.00 59 1012.4
20260503201545 59 184 0.0 0.0 0.00 0.00 0.00 59 1012.3
20260503200045 59 184 0.0 0.0 0.00 0.00 0.00 58 1012.2
20260503194547 60 184 0.0 0.0 0.00 0.00 0.00 57 1012.2
20260503193055 61 178 0.0 0.0 0.00 0.00 0.00 53 1012.2
20260503191545 62 178 0.0 0.0 0.00 0.00 0.00 51 1011.9
20260503190058 63 178 0.0 0.0 0.00 0.00 0.00 49 1011.7
20260503184542 63 178 0.0 0.0 0.00 0.00 0.00 48 1011.7
20260503183055 63 178 0.0 0.0 0.00 0.00 0.00 49 1011.7
20260503181541 64 178 0.0 1.0 0.00 0.00 0.00 48 1011.7
20260503180052 64 178 0.0 1.0 0.00 0.00 0.00 48 1011.5
20260503174541 64 202 0.0 2.0 0.00 0.00 0.00 46 1011.7
20260503173101 64 205 0.0 3.0 0.00 0.00 0.00 47 1011.6
20260503171548 65 163 0.0 4.0 0.00 0.00 0.00 46 1011.6
20260503081549 63 181 0.0 0.0 0.00 0.00 0.00 54 1013.3
20260503071547 59 330 0.0 1.0 0.00 0.00 0.00 60 1014.2
20260503054537 57 332 0.0 0.0 0.00 0.00 0.00 61 1014.4
20260503053026 57 332 0.0 0.0 0.00 0.00 0.00 60 1014.4
20260503051522 56 332 0.0 0.0 0.00 0.00 0.00 61 1014.3
20260503050018 55 332 0.0 0.0 0.00 0.00 0.00 61 1014.3
20260503044517 56 332 0.0 2.0 0.00 0.00 0.00 60 1014.3
20260503043015 55 331 0.0 2.0 0.00 0.00 0.00 60 1014.3
20260503041516 55 331 0.0 1.0 0.00 0.00 0.00 59 1014.2
20260503040011 56 331 0.0 1.0 0.00 0.00 0.00 55 1014.1
20260503034511 57 331 0.0 0.0 0.00 0.00 0.00 56 1014.4
20260503033016 57 331 0.0 1.0 0.00 0.00 0.00 55 1014.1
20260503031509 56 331 0.0 1.0 0.00 0.00 0.00 57 1014.2
20260503030008 56 331 0.0 2.0 0.00 0.00 0.00 59 1014.2
20260503024507 57 331 0.0 2.0 0.00 0.00 0.00 58 1014.3
20260503023005 57 328 0.0 0.0 0.00 0.00 0.00 59 1014.4
20260503021503 57 328 0.0 0.0 0.00 0.00 0.00 62 1014.6
20260503020002 58 328 0.0 0.0 0.00 0.00 0.00 59 1014.7
20260503014624 58 327 0.0 0.0 0.00 0.00 0.00 59 1014.9
20260503013057 59 327 0.0 0.0 0.00 0.00 0.00 58 1015.0
20260503011621 59 327 0.0 0.0 0.00 0.00 0.00 56 1015.0
20260503010058 58 327 0.0 0.0 0.00 0.00 0.00 57 1015.0
20260503004601 58 327 0.0 0.0 0.00 0.00 0.00 58 1015.0
20260503003057 59 327 0.0 0.0 0.00 0.00 0.00 58 1015.2
20260503001555 58 327 0.0 0.0 0.00 0.00 0.00 59 1015.2
20260503000047 60 330 0.0 0.0 0.00 0.00 0.00 56 1015.3
20260502234546 61 330 0.0 0.0 0.00 0.00 0.00 54 1015.4
20260502233046 61 329 0.0 0.0 0.00 0.00 0.00 52 1015.5
20260502231542 62 355 0.0 0.0 0.00 0.00 0.00 53 1015.5
20260502230042 63 360 0.0 4.0 0.00 0.00 0.00 51 1015.6
20260502224539 62 40 0.0 1.0 0.00 0.00 0.00 56 1015.6